sat.trackr.live / text

‹ back to catalog

MONOLITH

NORAD 49052 · 2021-068A

PAYLOAD ACTIVE UNKNOWN

§ Identity

Operator
Country
US
Launch date
2021-07-29
Launch site
RLLB
Launch vehicle
Mass (kg)
RCS (m²)

External: N2YO · Heavens-Above · Gunter

§ Orbital elements

Epoch: 2026-05-25T03:04:38.623584Z

Period
95.44 min
Inclination
37.0241°
Eccentricity
0.0002987
Mean motion
15.08876275 rev/d
Perigee alt
537.6 km
Apogee alt
541.7 km
Semi-major
6,917.8 km
B*
3.1905e-4
RAAN
42.3760°
Arg perigee
357.1351°
Mean anomaly
2.9377°
Rev number
26,379

§ Raw data

MONOLITH1 49052U 21068A   26145.12822481  .00005046  00000+0  31905-3 0  99982 49052  37.0241  42.3760 0002987 357.1351   2.9377 15.08876275263796

JSON: /api/v1/satellites/49052 · /tle

For live sub-satellite position, see the globe view (requires WebGL).

§ Visibility from observer

Set your observer location to see the next 7 days of passes ≥ 10°. The values pass through the URL so the page stays shareable.

No JS? Fill the form by hand. The geolocation button needs JavaScript.

§ Radio — SatNOGS DB

ModeDescriptionDownlinkUplink
FM Mode S - Transmitter 2.276 GHz

1 transmitter · refreshed weekly from db.satnogs.org